Language: 


Des rapports , des résumés tant et plus, au choix de chacun....


Données statistiques de la station
Quotidien Rapport Aout 19, 2017 Unités:  Anglais    Métrique   les deux
« Précédent Jour
Suivant Jour »
Quotidien Hebdomadaire Mensuel Annuel Actuel
  Haut: Bas: Moyen:
Température: 72.3 °F 32 °F 56.3 °F
Pt de rosée: 60.8 °F 48.2 °F 54 °F
Humidité: 97 % 0 % 55 %
Vitesse du vent: 23.5 mph 0 mph 7.5 mph
Rafales: 23.7 mph - -
Vent:- - WSW
Pression: 30.2 in 29.9 in -
Précipitation: 0.02 in    
Historical Graphs
 
 
Données statistiques pour Aout 19, 2017
Heure Température Point de rosée Pression Vent Vitesse du vent Refales Humidité Pluie (taux horaire)
00:04 55.9 °F 53.6 °F 29.9 in Calm   4.3 mph 87 % 0 in
00:09 55.9 °F 53.6 °F 29.9 in WSW 2.9 mph 6.5 mph 87 % 0 in
00:14 55.9 °F 53.6 °F 29.9 in Calm   6.5 mph 87 % 0 in
00:19 55.9 °F 53.6 °F 30 in Calm   6.5 mph 87 % 0 in
00:21 55.9 °F 53.6 °F 30 in SW 4.3 mph 6.5 mph 87 % 0 in
00:26 55.9 °F 53.6 °F 30 in SW 3.6 mph 5.4 mph 87 % 0 in
00:31 55.9 °F 53.6 °F 30 in SW 2.9 mph 6 mph 87 % 0 in
00:36 55.9 °F 53.6 °F 30 in SSW 3.6 mph 6 mph 87 % 0 in
00:41 55.9 °F 53.6 °F 30 in SSW 4.3 mph 6 mph 87 % 0 in
00:46 55.9 °F 53.6 °F 30 in SSW 4.9 mph 6.3 mph 87 % 0 in
00:51 55.9 °F 53.6 °F 30 in SW 2.5 mph 6.3 mph 87 % 0 in
00:56 55.9 °F 53.6 °F 30 in Calm   5.4 mph 87 % 0 in
01:01 55.9 °F 53.6 °F 30 in Calm   5.4 mph 87 % 0 in
01:07 55.9 °F 53.6 °F 30 in WSW 4.9 mph 5.8 mph 87 % 0 in
01:12 55.9 °F 53.6 °F 30 in SSW 3.6 mph 5.6 mph 87 % 0 in
01:17 55.9 °F 53.6 °F 30 in Calm   5.6 mph 87 % 0 in
01:18 55.9 °F 53.6 °F 30 in Calm   5.6 mph 87 % 0 in
01:23 55.9 °F 53.6 °F 30 in SSW 4.3 mph 5.8 mph 87 % 0 in
01:28 55.9 °F 53.6 °F 30 in SSW 4.7 mph 5.8 mph 87 % 0 in
01:33 55.9 °F 53.6 °F 30 in WSW 5.8 mph 5.8 mph 87 % 0 in
01:38 55.9 °F 53.6 °F 30 in SSW 3.8 mph 7.2 mph 87 % 0 in
01:43 55.9 °F 53.6 °F 30 in SW 5.6 mph 7.2 mph 87 % 0 in
01:48 55.9 °F 53.6 °F 30 in SW 5.8 mph 8.5 mph 87 % 0 in
01:53 55.9 °F 53.6 °F 30 in South 5.4 mph 8.5 mph 87 % 0 in
01:58 55.9 °F 53.6 °F 30 in SSW 4.5 mph 6.3 mph 87 % 0 in
02:03 55.9 °F 53.6 °F 30 in SSW 4.3 mph 7.6 mph 87 % 0 in
02:08 55.9 °F 53.6 °F 30 in SSW 5.8 mph 7.6 mph 87 % 0 in
02:13 55.9 °F 53.6 °F 30 in SW 3.1 mph 5.8 mph 87 % 0 in
02:18 55.9 °F 53.6 °F 30 in SW 3.8 mph 6.5 mph 87 % 0 in
02:23 55.9 °F 53.6 °F 30 in WSW 3.4 mph 6.5 mph 87 % 0 in
02:28 55.9 °F 53.6 °F 30 in SSW 4.9 mph 6.5 mph 87 % 0 in
02:33 55.9 °F 53.6 °F 29.9 in SSW 6.5 mph 7.8 mph 87 % 0 in
02:38 55.9 °F 53.6 °F 29.9 in SSW 3.6 mph 7.8 mph 87 % 0 in
02:43 55.9 °F 53.6 °F 29.9 in SW 6 mph 7.2 mph 87 % 0 in
02:48 55.9 °F 53.6 °F 29.9 in SW 3.8 mph 7.2 mph 87 % 0 in
02:53 55.9 °F 53.6 °F 29.9 in SSW 3.1 mph 6.5 mph 87 % 0 in
02:58 55.9 °F 53.6 °F 29.9 in SW 6 mph 6.5 mph 87 % 0 in
03:03 32 °F 53.6 °F 29.9 in SSW 5.8 mph 5.8 mph 0 % 0 in
03:08 32 °F 53.6 °F 29.9 in South 4.3 mph 5.8 mph 0 % 0 in
03:09 32 °F 53.6 °F 29.9 in SW 3.1 mph 5.8 mph 0 % 0 in
03:14 32 °F 53.6 °F 29.9 in SSW 5.4 mph 8.7 mph 0 % 0 in
03:19 32 °F 53.6 °F 29.9 in SW 3.6 mph 8.7 mph 0 % 0 in
03:24 32 °F 53.6 °F 29.9 in South 3.6 mph 7.4 mph 0 % 0 in
03:29 32 °F 53.6 °F 29.9 in SSW 3.8 mph 6.5 mph 0 % 0 in
03:34 32 °F 53.6 °F 29.9 in South 3.1 mph 6.5 mph 0 % 0 in
03:39 32 °F 53.6 °F 29.9 in SW 5.8 mph 6.5 mph 0 % 0 in
03:44 32 °F 53.6 °F 29.9 in WSW 3.8 mph 6 mph 0 % 0 in
03:49 32 °F 53.6 °F 29.9 in SSW 5.4 mph 7.6 mph 0 % 0 in
03:54 32 °F 53.6 °F 29.9 in Calm   7.6 mph 0 % 0 in
03:55 32 °F 53.6 °F 29.9 in South 1.3 mph 7.6 mph 0 % 0 in
04:00 32 °F 53.6 °F 29.9 in Calm   5.6 mph 0 % 0 in
04:05 32 °F 53.6 °F 29.9 in South 1.1 mph 5.8 mph 0 % 0 in
04:10 32 °F 53.6 °F 29.9 in SSW 8.5 mph 8.5 mph 0 % 0 in
04:15 32 °F 53.6 °F 29.9 in SSW 2.9 mph 8.5 mph 0 % 0 in
04:20 32 °F 53.6 °F 29.9 in SSW 5.8 mph 8.5 mph 0 % 0 in
04:25 32 °F 53.6 °F 29.9 in SSW 1.3 mph 7.4 mph 0 % 0 in
04:30 32 °F 53.6 °F 29.9 in South 3.6 mph 6 mph 0 % 0 in
04:35 32 °F 53.6 °F 29.9 in SSW 5.8 mph 8.1 mph 0 % 0 in
04:40 32 °F 53.6 °F 29.9 in WSW 5.6 mph 8.1 mph 0 % 0 in
04:45 32 °F 53.6 °F 29.9 in WSW 5.4 mph 7.8 mph 0 % 0 in
04:50 32 °F 53.6 °F 29.9 in SSW 3.8 mph 8.7 mph 0 % 0 in
04:55 32 °F 53.6 °F 29.9 in SSW 3.1 mph 8.7 mph 0 % 0 in
05:00 32 °F 53.6 °F 29.9 in WSW 3.1 mph 9.6 mph 0 % 0 in
05:02 32 °F 53.6 °F 29.9 in SSW 3.8 mph 9.6 mph 0 % 0 in
05:08 32 °F 53.6 °F 29.9 in SW 5.8 mph 9.6 mph 0 % 0 in
05:14 32 °F 53.6 °F 29.9 in WSW 5.6 mph 6.9 mph 0 % 0 in
05:19 32 °F 53.6 °F 29.9 in SSW 3.8 mph 8.5 mph 0 % 0 in
05:21 32 °F 53.6 °F 29.9 in South 3.4 mph 8.5 mph 0 % 0 in
05:22 32 °F 53.6 °F 29.9 in South 5.6 mph 8.5 mph 0 % 0 in
05:24 32 °F 53.6 °F 29.9 in SSW 4.3 mph 7.2 mph 0 % 0 in
05:29 32 °F 53.6 °F 29.9 in South 3.1 mph 6.5 mph 0 % 0 in
05:34 32 °F 53.6 °F 29.9 in SSW 5.4 mph 7.4 mph 0 % 0 in
05:39 32 °F 53.6 °F 29.9 in SSW 5.8 mph 7.8 mph 0 % 0 in
05:44 32 °F 53.6 °F 29.9 in WSW 4.3 mph 8.7 mph 0 % 0 in
05:49 32 °F 53.6 °F 29.9 in SW 4.9 mph 8.7 mph 0 % 0 in
05:54 32 °F 53.6 °F 29.9 in SSW 7.6 mph 8.7 mph 0 % 0 in
05:59 32 °F 53.6 °F 29.9 in SW 2.5 mph 7.6 mph 0 % 0 in
06:04 32 °F 53.6 °F 29.9 in SSW 6.3 mph 7.6 mph 0 % 0 in
06:10 32 °F 53.6 °F 29.9 in SW 2.9 mph 8.7 mph 0 % 0 in
06:15 32 °F 53.6 °F 29.9 in SSW 5.8 mph 8.7 mph 0 % 0 in
06:20 32 °F 53.6 °F 29.9 in SSW 6 mph 10.3 mph 0 % 0 in
06:25 32 °F 53.6 °F 29.9 in SSW 6.3 mph 10.3 mph 0 % 0 in
06:30 32 °F 53.6 °F 29.9 in SSW 8.1 mph 10.3 mph 0 % 0 in
06:35 32 °F 53.6 °F 29.9 in WSW 3.8 mph 9.6 mph 0 % 0 in
06:40 32 °F 53.6 °F 29.9 in WSW 5.6 mph 10.7 mph 0 % 0 in
06:45 32 °F 53.6 °F 30 in WSW 8.7 mph 10.7 mph 0 % 0 in
06:50 32 °F 53.6 °F 30 in SSW 8.7 mph 10.5 mph 0 % 0 in
06:55 32 °F 53.6 °F 30 in WSW 7.8 mph 10.5 mph 0 % 0 in
07:00 32 °F 53.6 °F 30 in WSW 6.3 mph 10.5 mph 0 % 0 in
07:05 32 °F 53.6 °F 30 in SW 4.9 mph 10.5 mph 0 % 0 in
07:10 32 °F 53.6 °F 30 in SSW 7.2 mph 9.8 mph 0 % 0 in
07:15 32 °F 53.6 °F 30 in SW 7.6 mph 10.5 mph 0 % 0 in
07:20 32 °F 53.6 °F 30 in SSW 5.6 mph 10.5 mph 0 % 0 in
07:25 32 °F 53.6 °F 30 in SSW 3.8 mph 8.5 mph 0 % 0 in
07:30 32 °F 53.6 °F 30 in SW 3.4 mph 8.7 mph 0 % 0 in
07:35 32 °F 53.6 °F 30 in WSW 4.5 mph 8.7 mph 0 % 0 in
07:40 32 °F 53.6 °F 30 in Calm   6.3 mph 0 % 0 in
07:45 32 °F 53.6 °F 30 in SW 3.8 mph 6 mph 0 % 0 in
07:50 32 °F 53.6 °F 30 in WSW 4.9 mph 7.2 mph 0 % 0 in
07:55 32 °F 53.6 °F 30 in SSW 2.9 mph 9.2 mph 0 % 0 in
08:00 32 °F 53.6 °F 30 in SW 6.5 mph 9.2 mph 0 % 0 in
08:05 32 °F 53.6 °F 30 in SSW 6.5 mph 8.1 mph 0 % 0 in
08:10 32 °F 53.6 °F 30 in WSW 4 mph 8.1 mph 0 % 0 in
08:15 32 °F 53.6 °F 30 in WSW 5.4 mph 7.6 mph 0 % 0 in
08:20 32 °F 53.6 °F 30 in SW 2 mph 7.6 mph 0 % 0 in
08:25 32 °F 53.6 °F 30 in SW 2.7 mph 6 mph 0 % 0 in
08:31 60.1 °F 59 °F 30 in SSW 6.5 mph 6.5 mph 97 % 0 in
08:36 60.4 °F 59 °F 30 in WSW 4.9 mph 6.5 mph 96 % 0 in
08:41 61 °F 60.8 °F 30 in SSW 5.4 mph 6.5 mph 96 % 0 in
08:46 61.9 °F 60.8 °F 30 in Calm   6 mph 95 % 0 in
08:51 61.9 °F 60.8 °F 30 in WSW 2.7 mph 5.8 mph 95 % 0 in
08:56 62.6 °F 60.8 °F 30 in WSW 4.9 mph 5.8 mph 93 % 0 in
09:01 63 °F 60.8 °F 30 in WSW 4.9 mph 5.8 mph 92 % 0 in
09:06 62.2 °F 59 °F 30 in WSW 2 mph 4.9 mph 91 % 0 in
09:11 62.2 °F 59 °F 30 in West 5.8 mph 7.8 mph 91 % 0 in
09:16 62.1 °F 59 °F 30 in WSW 4.9 mph 7.8 mph 91 % 0 in
09:21 62.8 °F 59 °F 30 in WSW 6.3 mph 8.1 mph 90 % 0 in
09:26 63.1 °F 59 °F 30 in WSW 5.4 mph 9.8 mph 88 % 0 in
09:31 62.8 °F 59 °F 30 in WSW 8.5 mph 9.8 mph 87 % 0 in
09:36 63.5 °F 60.8 °F 30 in WSW 7.8 mph 9.8 mph 87 % 0 in
09:41 63.9 °F 60.8 °F 30 in West 6.3 mph 8.7 mph 87 % 0 in
09:46 63.5 °F 59 °F 30 in West 6.5 mph 12.1 mph 86 % 0 in
09:51 64 °F 59 °F 30 in West 6.5 mph 12.1 mph 86 % 0 in
09:56 64 °F 59 °F 30 in WSW 5.8 mph 9.6 mph 85 % 0 in
10:01 64.8 °F 60.8 °F 30 in WSW 7.6 mph 9.2 mph 85 % 0 in
10:06 64.9 °F 59 °F 30 in West 7.8 mph 9.8 mph 82 % 0 in
10:11 64.2 °F 59 °F 30 in WSW 6 mph 12.1 mph 81 % 0 in
10:16 63.9 °F 59 °F 30 in West 4.9 mph 12.1 mph 82 % 0 in
10:21 63.7 °F 57.2 °F 30 in West 6.5 mph 10.5 mph 81 % 0 in
10:26 64.9 °F 59 °F 30 in WNW 8.9 mph 10.5 mph 80 % 0 in
10:31 64.9 °F 59 °F 30 in West 4.3 mph 10.3 mph 79 % 0 in
10:37 63.9 °F 57.2 °F 30 in West 6.5 mph 10.7 mph 79 % 0 in
10:42 65.1 °F 59 °F 30 in WSW 4 mph 10.7 mph 80 % 0 in
10:47 65.5 °F 59 °F 30 in West 7.8 mph 11 mph 78 % 0 in
10:52 64.4 °F 57.2 °F 30 in WSW 5.8 mph 11 mph 76 % 0 in
10:57 64.2 °F 57.2 °F 30 in WNW 6 mph 9.6 mph 77 % 0 in
11:02 64.6 °F 57.2 °F 30 in WSW 5.8 mph 13 mph 77 % 0 in
11:07 66.2 °F 59 °F 30 in SSW 5.8 mph 13 mph 79 % 0 in
11:12 67.5 °F 60.8 °F 30 in West 9.6 mph 9.6 mph 79 % 0 in
11:17 68 °F 60.8 °F 30 in WSW 5.4 mph 9.6 mph 77 % 0 in
11:22 68.4 °F 60.8 °F 30 in WNW 8.5 mph 10.3 mph 74 % 0 in
11:27 66.9 °F 57.2 °F 30 in WSW 6.5 mph 10.3 mph 73 % 0 in
11:32 66 °F 57.2 °F 30 in West 8.9 mph 10.1 mph 72 % 0 in
11:37 66.7 °F 57.2 °F 30 in West 4.9 mph 10.1 mph 72 % 0 in
11:42 68 °F 59 °F 30 in West 9.4 mph 11 mph 71 % 0 in
11:47 68.4 °F 57.2 °F 30 in West 7.8 mph 16.8 mph 69 % 0 in
11:52 68.5 °F 57.2 °F 30 in West 15.2 mph 16.8 mph 68 % 0 in
11:57 69.3 °F 57.2 °F 30 in WSW 5.4 mph 15.4 mph 66 % 0 in
12:02 69.8 °F 59 °F 30 in West 8.7 mph 15.4 mph 67 % 0 in
12:07 69.4 °F 57.2 °F 30 in WSW 5.4 mph 15.4 mph 65 % 0 in
12:13 69.3 °F 57.2 °F 30 in West 8.9 mph 14.8 mph 65 % 0 in
12:18 69.8 °F 57.2 °F 30 in West 3.8 mph 10.5 mph 65 % 0 in
12:23 68.5 °F 55.4 °F 30 in West 5.6 mph 15.9 mph 64 % 0 in
12:28 67.6 °F 55.4 °F 30 in WSW 12.1 mph 15.9 mph 65 % 0 in
12:33 66.9 °F 55.4 °F 30 in West 7.4 mph 15.4 mph 65 % 0 in
12:38 66.6 °F 55.4 °F 30 in West 10.7 mph 15.4 mph 66 % 0 in
12:43 66.6 °F 55.4 °F 30 in West 2.9 mph 12.5 mph 67 % 0 in
12:45 66.6 °F 55.4 °F 30 in West 5.4 mph 11 mph 68 % 0 in
12:51 66.4 °F 55.4 °F 30 in WSW 12.5 mph 12.8 mph 66 % 0 in
12:56 68.5 °F 57.2 °F 30 in West 13 mph 13.2 mph 67 % 0 in
13:01 68.9 °F 57.2 °F 30 in WNW 4.3 mph 13.6 mph 66 % 0 in
13:06 69.3 °F 55.4 °F 30 in WNW 8.5 mph 13.6 mph 61 % 0 in
13:11 68.7 °F 53.6 °F 30 in West 12.5 mph 14.3 mph 59 % 0 in
13:16 69.3 °F 55.4 °F 30 in West 5.8 mph 14.3 mph 62 % 0 in
13:21 70.3 °F 53.6 °F 30 in West 16.8 mph 16.8 mph 56 % 0 in
13:26 68.2 °F 51.8 °F 30 in West 10.3 mph 17.7 mph 57 % 0 in
13:31 68.2 °F 53.6 °F 30 in West 11.2 mph 17.7 mph 60 % 0 in
13:36 69.1 °F 55.4 °F 30 in West 8.1 mph 15.2 mph 59 % 0 in
13:41 70 °F 55.4 °F 30 in West 10.5 mph 17.9 mph 58 % 0 in
13:46 68.2 °F 51.8 °F 30 in West 15.9 mph 17.9 mph 54 % 0 in
13:51 66.9 °F 51.8 °F 30 in West 6.5 mph 19.7 mph 58 % 0 in
13:56 67.5 °F 53.6 °F 30 in WSW 15.2 mph 19.7 mph 60 % 0 in
14:01 68.9 °F 55.4 °F 30 in West 15.7 mph 15.7 mph 60 % 0 in
14:06 70.2 °F 55.4 °F 30 in West 13.6 mph 15.7 mph 59 % 0 in
14:11 70.3 °F 53.6 °F 30 in WNW 12.1 mph 17 mph 55 % 0 in
14:16 70.7 °F 53.6 °F 30 in SW 9.6 mph 17.4 mph 54 % 0 in
14:21 71.2 °F 53.6 °F 30 in West 12.8 mph 17.4 mph 53 % 0 in
14:26 71.1 °F 51.8 °F 30 in West 10.5 mph 15.4 mph 51 % 0 in
14:31 72 °F 53.6 °F 30 in WSW 8.7 mph 17.4 mph 51 % 0 in
14:36 71.8 °F 51.8 °F 30 in West 10.1 mph 17.4 mph 49 % 0 in
14:41 71.8 °F 51.8 °F 30 in WSW 12.5 mph 15.4 mph 48 % 0 in
14:46 72.3 °F 51.8 °F 30.1 in West 15.4 mph 17.9 mph 48 % 0 in
14:51 72.1 °F 51.8 °F 30.1 in WSW 12.3 mph 17.9 mph 48 % 0 in
14:57 71.4 °F 50 °F 30.1 in West 15.7 mph 17.7 mph 47 % 0 in
15:02 72 °F 50 °F 30 in West 8.5 mph 17 mph 46 % 0 in
15:07 70.7 °F 50 °F 30 in West 10.5 mph 17 mph 46 % 0 in
15:12 70.3 °F 48.2 °F 30 in WSW 12.8 mph 15.2 mph 46 % 0 in
15:17 70.3 °F 50 °F 30.1 in WSW 5.4 mph 15.4 mph 48 % 0 in
15:22 69.8 °F 48.2 °F 30.1 in WNW 7.8 mph 15.9 mph 47 % 0 in
15:27 70 °F 48.2 °F 30.1 in WNW 8.1 mph 17.9 mph 47 % 0 in
15:32 70.9 °F 50 °F 30.1 in WSW 16.6 mph 17.9 mph 47 % 0 in
15:37 71.4 °F 50 °F 30.1 in West 13 mph 17.7 mph 47 % 0 in
15:42 72.1 °F 51.8 °F 30.1 in West 23.5 mph 23.5 mph 48 % 0 in
15:47 71.2 °F 48.2 °F 30.1 in West 9.2 mph 23.5 mph 44 % 0 in
15:52 70 °F 48.2 °F 30.1 in West 10.5 mph 23.5 mph 45 % 0 in
15:57 71.2 °F 50 °F 30.1 in WSW 11 mph 17.4 mph 46 % 0 in
16:02 70.7 °F 48.2 °F 30.1 in WSW 14.8 mph 17.7 mph 45 % 0 in
16:07 70 °F 48.2 °F 30.1 in West 9.2 mph 17.7 mph 47 % 0 in
16:12 71.1 °F 50 °F 30.1 in WSW 11.9 mph 14.8 mph 48 % 0 in
16:17 70.5 °F 48.2 °F 30.1 in SSE 5.8 mph 19.5 mph 46 % 0 in
16:22 70.5 °F 48.2 °F 30.1 in West 10.3 mph 19.5 mph 46 % 0 in
16:27 70.5 °F 50 °F 30.1 in WNW 13 mph 18.6 mph 47 % 0 in
16:32 70.2 °F 50 °F 30.1 in West 17.2 mph 19.9 mph 47 % 0 in
16:37 69.1 °F 48.2 °F 30.1 in West 15.4 mph 19.9 mph 48 % 0 in
16:43 70 °F 50 °F 30.1 in WSW 17.7 mph 19.7 mph 49 % 0 in
16:48 70.5 °F 50 °F 30.1 in WSW 11 mph 19.7 mph 49 % 0 in
16:53 70.5 °F 50 °F 30.1 in WSW 11 mph 19.5 mph 49 % 0 in
16:58 69.1 °F 48.2 °F 30.1 in WSW 15.4 mph 19.9 mph 48 % 0 in
17:03 68.9 °F 48.2 °F 30.1 in West 10.1 mph 19.9 mph 48 % 0 in
17:08 69.4 °F 48.2 °F 30.1 in West 19.5 mph 19.5 mph 48 % 0 in
17:13 69.6 °F 50 °F 30.1 in WSW 11 mph 23.7 mph 50 % 0 in
17:18 68.5 °F 48.2 °F 30.1 in SW 15.4 mph 23.7 mph 49 % 0 in
17:23 68 °F 48.2 °F 30.1 in West 10.5 mph 21.3 mph 50 % 0 in
17:28 69.1 °F 51.8 °F 30.1 in West 18.6 mph 21.3 mph 52 % 0 in
17:33 68.4 °F 50 °F 30.1 in West 10.7 mph 18.6 mph 51 % 0 in
17:38 68 °F 50 °F 30.1 in WSW 11 mph 17.7 mph 53 % 0 in
17:43 67.5 °F 51.8 °F 30.1 in West 13.2 mph 17.7 mph 56 % 0 in
17:48 68.4 °F 51.8 °F 30.1 in WSW 22.4 mph 23.7 mph 56 % 0 in
17:53 68 °F 51.8 °F 30.1 in West 14.3 mph 23.7 mph 57 % 0 in
17:58 66.9 °F 50 °F 30.1 in West 8.5 mph 19.9 mph 56 % 0 in
18:03 66.6 °F 51.8 °F 30.1 in West 13.2 mph 19.9 mph 58 % 0 in
18:08 66.7 °F 51.8 °F 30.1 in West 7.2 mph 17.7 mph 57 % 0 in
18:09 66.9 °F 51.8 °F 30.1 in WSW 14.1 mph 17.7 mph 57 % 0 in
18:14 68 °F 53.6 °F 30.1 in West 8.1 mph 17 mph 59 % 0 in
18:19 68.4 °F 51.8 °F 30.1 in WNW 14.5 mph 23 mph 55 % 0 in
18:24 68 °F 50 °F 30.1 in SW 12.8 mph 23 mph 53 % 0 in
18:29 67.8 °F 51.8 °F 30.1 in WSW 17.2 mph 20.4 mph 55 % 0 in
18:34 67.8 °F 51.8 °F 30.1 in West 9.8 mph 20.4 mph 57 % 0 in
18:39 67.6 °F 51.8 °F 30.1 in West 18.8 mph 21.9 mph 56 % 0 in
18:45 67.5 °F 50 °F 30.1 in West 17.4 mph 23.5 mph 55 % 0 in
18:50 67.3 °F 50 °F 30.1 in West 22.1 mph 23.5 mph 55 % 0 in
18:55 66.6 °F 50 °F 30.1 in West 14.8 mph 22.8 mph 54 % 0 in
19:00 66 °F 51.8 °F 30.1 in WSW 10.7 mph 19.9 mph 58 % 0 in
19:05 66.6 °F 51.8 °F 30.1 in WSW 12.1 mph 20.8 mph 59 % 0 in
19:10 67.1 °F 51.8 °F 30.1 in West 17.2 mph 20.8 mph 58 % 0 in
19:15 66.6 °F 51.8 °F 30.1 in West 11 mph 18.1 mph 59 % 0 in
19:20 66.4 °F 51.8 °F 30.1 in SW 17.2 mph 20.4 mph 59 % 0 in
19:25 66.6 °F 51.8 °F 30.1 in West 10.7 mph 20.4 mph 59 % 0 in
19:30 66.2 °F 51.8 °F 30.1 in WSW 8.9 mph 20.8 mph 59 % 0 in
19:35 66 °F 51.8 °F 30.1 in WSW 12.5 mph 20.8 mph 61 % 0 in
19:40 65.7 °F 53.6 °F 30.1 in WSW 7.8 mph 19 mph 63 % 0 in
19:45 65.3 °F 53.6 °F 30.1 in WSW 15.4 mph 19.5 mph 64 % 0 in
19:50 64.8 °F 53.6 °F 30.1 in West 10.3 mph 19.5 mph 65 % 0 in
19:55 64.2 °F 53.6 °F 30.1 in West 10.5 mph 17.4 mph 66 % 0 in
20:00 63.9 °F 53.6 °F 30.1 in West 8.5 mph 17.4 mph 67 % 0 in
20:05 63.3 °F 53.6 °F 30.1 in WSW 10.7 mph 12.3 mph 69 % 0 in
20:10 63.1 °F 53.6 °F 30.1 in West 14.8 mph 14.8 mph 70 % 0 in
20:15 63 °F 53.6 °F 30.1 in WSW 10.3 mph 14.8 mph 71 % 0 in
20:20 62.6 °F 53.6 °F 30.1 in WSW 7.8 mph 12.5 mph 71 % 0 in
20:25 62.6 °F 53.6 °F 30.1 in West 6.5 mph 12.3 mph 72 % 0 in
20:30 62.4 °F 53.6 °F 30.1 in WSW 10.7 mph 12.8 mph 73 % 0 in
20:35 62.2 °F 53.6 °F 30.1 in West 13 mph 13.9 mph 73 % 0 in
20:40 62.2 °F 53.6 °F 30.1 in West 10.7 mph 13.9 mph 74 % 0 in
20:45 61.9 °F 55.4 °F 30.1 in West 5.6 mph 13 mph 75 % 0 in
20:51 61.7 °F 55.4 °F 30.1 in West 7.2 mph 13 mph 76 % 0 in
20:56 61.5 °F 53.6 °F 30.1 in WSW 7.4 mph 13 mph 76 % 0 in
21:00 61.3 °F 55.4 °F 30.1 in West 7.6 mph 10.3 mph 77 % 0 in
21:06 61 °F 53.6 °F 30.1 in West 4.9 mph 9.8 mph 78 % 0 in
21:11 60.8 °F 55.4 °F 30.1 in West 7.8 mph 8.5 mph 79 % 0 in
21:16 60.8 °F 55.4 °F 30.1 in West 8.7 mph 13 mph 79 % 0 in
21:21 60.6 °F 55.4 °F 30.1 in WSW 8.1 mph 13 mph 81 % 0 in
21:26 60.6 °F 55.4 °F 30.1 in West 7.4 mph 11 mph 81 % 0 in
21:31 60.4 °F 55.4 °F 30.1 in WSW 6 mph 11 mph 82 % 0 in
21:36 60.3 °F 55.4 °F 30.1 in WSW 11 mph 11 mph 82 % 0 in
21:41 60.1 °F 55.4 °F 30.1 in West 6.7 mph 11 mph 82 % 0 in
21:46 60.1 °F 55.4 °F 30.1 in West 4.7 mph 11 mph 82 % 0 in
21:51 59.7 °F 55.4 °F 30.2 in WSW 5.6 mph 8.7 mph 82 % 0 in
21:56 59.5 °F 55.4 °F 30.2 in WSW 6.3 mph 7.2 mph 82 % 0 in
22:01 59.4 °F 55.4 °F 30.2 in WSW 5.6 mph 7.4 mph 83 % 0 in
22:06 59.2 °F 53.6 °F 30.2 in WSW 7.6 mph 9.8 mph 83 % 0 in
22:11 59 °F 55.4 °F 30.2 in WSW 6 mph 9.8 mph 84 % 0 in
22:16 58.6 °F 53.6 °F 30.2 in WSW 4.9 mph 7.6 mph 84 % 0 in
22:21 58.5 °F 53.6 °F 30.1 in WSW 4.7 mph 6.5 mph 84 % 0 in
22:26 58.1 °F 53.6 °F 30.1 in West 2.5 mph 5.8 mph 84 % 0 in
22:31 57.9 °F 53.6 °F 30.2 in WSW 4.7 mph 6 mph 85 % 0 in
22:36 57.7 °F 55.4 °F 30.2 in WSW 4 mph 7.4 mph 87 % 0 in
22:41 57.6 °F 55.4 °F 30.2 in WSW 3.4 mph 7.4 mph 87 % 0 in
22:46 57.2 °F 53.6 °F 30.2 in WSW 2.5 mph 6 mph 87 % 0 in
22:51 57 °F 53.6 °F 30.2 in Calm   6.7 mph 87 % 0 in
22:56 56.8 °F 53.6 °F 30.2 in Calm   6.7 mph 88 % 0 in
23:01 56.8 °F 53.6 °F 30.2 in West 4.3 mph 6 mph 89 % 0 in
23:06 57 °F 55.4 °F 30.2 in WSW 6 mph 7.6 mph 91 % 0 in
23:11 57.2 °F 55.4 °F 30.2 in WSW 6.3 mph 8.7 mph 91 % 0 in
23:17 57.4 °F 55.4 °F 30.2 in WSW 7.4 mph 8.7 mph 92 % 0 in
23:22 57.6 °F 55.4 °F 30.2 in SW 0.9 mph 8.1 mph 92 % 0 in
23:27 57.6 °F 55.4 °F 30.2 in WSW 8.5 mph 8.7 mph 92 % 0 in
23:32 57.6 °F 55.4 °F 30.2 in WSW 10.5 mph 10.5 mph 92 % 0 in
23:37 57.7 °F 55.4 °F 30.2 in SW 6 mph 12.1 mph 93 % 0 in
23:42 57.7 °F 55.4 °F 30.2 in SW 3.8 mph 12.1 mph 93 % 0 in
23:47 57.7 °F 55.4 °F 30.2 in West 8.5 mph 11.9 mph 93 % 0 in
23:52 57.7 °F 55.4 °F 30.2 in WSW 6.3 mph 8.5 mph 93 % 0 in
23:57 57.7 °F 55.4 °F 30.2 in WSW 4 mph 8.7 mph 93 % 0 in
Le Gheer Warneton
Courtoisie de Weather Underground - 2.25 mb

Mise a jour : 18/12/2017 23:04:15
Généré par Cumulus 1.9.4 (1099)